[[{"header":{"parameterUnit":"m.s-1","parameterCategory":2,"la1":30.2992,"la2":30.254,"lo1":-89.0895,"lo2":-89.0443,"dy":0.0025,"dx":0.0025,"nx":19,"ny":19,"refTime":"2026-04-02T03:00:00:Z","depth":"0","parameterNumber":2,"parameterNumberName":"U-component_of_CURRENTS"},"data":[0,0,0,-0.1393,-0.1394,-0.1446,-0.1446,-0.1464,-0.1464,0,0,0,0,0,0,0,0,0,0,0,-0.137,-0.137,-0.1393,-0.1394,-0.1446,-0.1446,-0.1464,-0.1464,0,0,0,0,0,0,0,0,0,0,0,-0.137,-0.137,-0.137,-0.1395,-0.1446,-0.1446,-0.1464,-0.1437,0,0,0,0,0,0,0,0,0,0,-0.1393,-0.1373,-0.137,-0.137,-0.1395,-0.1446,-0.1446,-0.1437,-0.1439,-0.1425,0,-0.143,0,-0.1447,-0.1463,-0.1463,0,0,0,-0.1397,-0.1371,-0.139,-0.137,-0.1395,-0.1446,-0.1423,-0.1438,-0.1441,-0.1428,-0.143,-0.1432,-0.1447,-0.1463,-0.1463,-0.1446,-0.1446,0,0,-0.1394,-0.1375,-0.1389,-0.1392,-0.1403,-0.1422,-0.1425,-0.144,-0.1436,-0.143,-0.1432,-0.1448,-0.1463,-0.1463,-0.1446,-0.1446,0,0,0,-0.1384,-0.1372,-0.1392,-0.139,-0.1404,-0.1423,-0.1427,-0.1435,-0.1443,-0.1433,-0.1448,-0.1463,-0.1463,-0.1447,-0.1446,-0.1499,0,0,0,-0.1382,-0.1367,-0.1391,-0.1379,-0.1404,-0.1426,-0.1421,-0.1442,-0.1445,-0.1448,-0.1463,-0.1463,-0.1447,-0.1446,-0.1498,-0.1532,0,0,0,-0.1368,-0.1365,-0.1371,-0.1378,-0.1401,-0.1426,-0.1436,-0.1444,-0.1454,-0.1463,-0.1463,-0.1447,-0.1446,-0.1497,-0.1529,-0.1502,0,0,0,-0.1348,-0.1338,-0.137,-0.1358,-0.1401,-0.1403,-0.1436,-0.1431,-0.1432,-0.1463,-0.1447,-0.1446,-0.1496,-0.1528,-0.1502,-0.1373,-0.1366,0,0,-0.1322,-0.1334,-0.1326,-0.1356,-0.1367,-0.1397,-0.1424,-0.1439,-0.1425,-0.1439,-0.1439,-0.1498,-0.1529,-0.1502,-0.135,-0.1344,0,0,0,-0.1308,-0.131,-0.1311,-0.1332,-0.1345,-0.1415,-0.1423,-0.1438,-0.1462,-0.1427,-0.1475,-0.1493,-0.1474,-0.1394,-0.1389,-0.136,-0.1444,-0.1445,-0.1445,-0.1264,-0.1288,-0.1297,-0.134,-0.1359,-0.1417,-0.1461,-0.1489,-0.1458,-0.1472,-0.1518,-0.1512,-0.1427,-0.1422,-0.1395,-0.1491,-0.1491,-0.1492,-0.1492,-0.1247,-0.1259,-0.1322,-0.1337,-0.1419,-0.1453,-0.1536,-0.1545,-0.1567,-0.1549,-0.1526,-0.1432,-0.1419,-0.1392,-0.1495,-0.1494,-0.1494,-0.1494,-0.1493,-0.1214,-0.1232,-0.1255,-0.1328,-0.1418,-0.1498,-0.1569,-0.1616,-0.1606,-0.1616,-0.1459,-0.1456,-0.1444,-0.1569,-0.1569,-0.1569,-0.1569,-0.1569,-0.1569,-0.1174,-0.1209,-0.1232,-0.1322,-0.1373,-0.1467,-0.1573,-0.1577,-0.1533,-0.1502,-0.15,-0.1424,-0.1535,-0.1546,-0.1569,-0.1569,-0.1569,-0.1569,-0.1569,-0.1115,-0.1142,-0.1173,-0.1213,-0.1334,-0.1363,-0.1479,-0.1431,-0.143,-0.1363,-0.1322,-0.1424,-0.1387,-0.1389,-0.1395,-0.1378,-0.1378,-0.1378,-0.1377,-0.107,-0.1092,-0.1117,-0.1165,-0.1244,-0.1313,-0.1233,-0.1221,-0.12,-0.1176,-0.1232,-0.1191,-0.12,-0.1152,-0.1159,-0.116,-0.1084,-0.1083,-0.1083,-0.1032,-0.1054,-0.1043,-0.1108,-0.1193,-0.1204,-0.108,-0.1,-0.1012,-0.1076,-0.1224,-0.1236,-0.1186,-0.1202,-0.1132,-0.1144,-0.1147,0,0]},{"header":{"parameterUnit":"m.s-1","parameterCategory":2,"la1":30.2992,"la2":30.254,"lo1":-89.0895,"lo2":-89.0443,"dy":0.0025,"dx":0.0025,"nx":19,"ny":19,"refTime":"2026-04-02T03:00:00:Z","depth":"0","parameterNumber":3,"parameterNumberName":"V-component_of_CURRENTS"},"data":[0,0,0,-0.0252,-0.0251,-0.0183,-0.0182,-0.005,-0.0049,0,0,0,0,0,0,0,0,0,0,0,-0.027,-0.027,-0.0252,-0.0251,-0.0183,-0.0182,-0.005,-0.0049,0,0,0,0,0,0,0,0,0,0,0,-0.027,-0.027,-0.027,-0.0251,-0.0183,-0.0182,-0.0051,-0.0108,0,0,0,0,0,0,0,0,0,0,-0.0178,-0.0208,-0.027,-0.027,-0.0251,-0.0183,-0.0182,-0.0111,-0.0104,-0.0076,0,-0.0077,0,-0.0071,-0.0041,-0.0041,0,0,0,-0.0229,-0.0214,-0.0202,-0.027,-0.0251,-0.0183,-0.0207,-0.0107,-0.01,-0.0067,-0.0075,-0.0071,-0.0069,-0.0041,-0.004,0.0068,0.0068,0,0,-0.0232,-0.0246,-0.0207,-0.0197,-0.0247,-0.021,-0.0205,-0.0103,-0.0097,-0.0075,-0.0068,-0.0067,-0.004,-0.0039,0.0067,0.0068,0,0,0,-0.0259,-0.0249,-0.0239,-0.0202,-0.02,-0.0208,-0.0203,-0.0101,-0.01,-0.0066,-0.0065,-0.0039,-0.0038,0.0067,0.0067,0.0048,0,0,0,-0.026,-0.0266,-0.0241,-0.0246,-0.0203,-0.0156,-0.0203,-0.0107,-0.0095,-0.0066,-0.0039,-0.0037,0.0067,0.0067,0.0047,0.0034,0,0,0,-0.0271,-0.0266,-0.0265,-0.0248,-0.023,-0.0158,-0.015,-0.0104,-0.0096,-0.0041,-0.0036,0.0066,0.0067,0.0047,0.0035,0.0085,0,0,0,-0.0277,-0.0285,-0.0265,-0.0263,-0.0231,-0.0187,-0.015,-0.0108,-0.0066,-0.0039,0.0067,0.0067,0.0047,0.0035,0.0084,0.0081,0.0085,0,0,-0.0293,-0.0287,-0.0284,-0.0265,-0.0241,-0.0194,-0.0143,-0.0078,-0.0041,0.0039,0.0042,0.0048,0.0035,0.0084,0.0124,0.0126,0,0,0,-0.0292,-0.0292,-0.0279,-0.0259,-0.0221,-0.017,-0.0107,-0.0064,0.001,-0.0017,0.0068,0.0061,0.0093,0.0091,0.0093,0.0218,0.0071,0.0071,0.0071,-0.0333,-0.0307,-0.03,-0.0261,-0.0225,-0.0144,-0.0085,-0.0011,0.0016,0.0047,0.0061,0.0104,0.01,0.0102,0.0231,0.0081,0.0081,0.0081,0.0081,-0.0364,-0.0362,-0.0319,-0.0306,-0.0242,-0.0192,-0.0068,-0.0024,0.0082,0.0077,0.011,0.0088,0.0103,0.024,0.008,0.008,0.008,0.0081,0.0081,-0.0392,-0.0391,-0.0379,-0.0362,-0.0316,-0.0235,-0.0152,-0.005,0.0054,0.0094,0.0125,0.0125,0.0235,0.0116,0.0116,0.0116,0.0116,0.0116,0.0116,-0.0436,-0.0423,-0.0444,-0.0419,-0.0415,-0.0356,-0.0201,-0.011,0.0033,0.0111,0.0112,0.0271,0.0115,0.0102,0.0119,0.0118,0.0118,0.0118,0.0118,-0.0471,-0.0479,-0.0516,-0.0526,-0.0506,-0.046,-0.0312,-0.0106,0.0015,0.0089,0.0311,0.0145,0.016,0.0159,0.0148,0.0176,0.0176,0.0176,0.0176,-0.0509,-0.0511,-0.0579,-0.061,-0.0599,-0.0507,-0.034,-0.0097,0.0206,0.0363,0.0407,0.0405,0.0397,0.0427,0.0419,0.0414,0.0509,0.051,0.0511,-0.054,-0.0563,-0.0618,-0.0649,-0.0647,-0.0543,-0.036,-0.0,0.0413,0.0539,0.0587,0.0573,0.0583,0.056,0.0614,0.0593,0.0587,0,0]}],[{"header":{"parameterUnit":"m.s-1","parameterCategory":2,"la1":30.2992,"la2":30.254,"lo1":-89.0895,"lo2":-89.0443,"dy":0.0025,"dx":0.0025,"nx":19,"ny":19,"refTime":"2026-04-02T03:00:00:Z","depth":"2","parameterNumber":2,"parameterNumberName":"U-component_of_CURRENTS"},"data":[0,0,0,-0.1239,-0.124,-0.1286,-0.1286,-0.1297,-0.1297,0,0,0,0,0,0,0,0,0,0,0,-0.1221,-0.1221,-0.1239,-0.124,-0.1286,-0.1286,-0.1297,-0.1297,0,0,0,0,0,0,0,0,0,0,0,-0.1221,-0.1221,-0.1222,-0.1241,-0.1286,-0.1286,-0.1297,-0.1274,0,0,0,0,0,0,0,0,0,0,-0.1236,-0.1221,-0.1221,-0.1222,-0.1241,-0.1285,-0.1286,-0.1274,-0.1276,-0.1262,0,-0.127,0,-0.1283,-0.1296,-0.1296,0,0,0,-0.1241,-0.122,-0.1237,-0.1222,-0.1241,-0.1285,-0.1265,-0.1275,-0.1277,-0.1265,-0.127,-0.1271,-0.1283,-0.1296,-0.1296,-0.1265,-0.1264,0,0,-0.1238,-0.1224,-0.1236,-0.1238,-0.1252,-0.1264,-0.1267,-0.1277,-0.1274,-0.127,-0.1271,-0.1283,-0.1296,-0.1296,-0.1265,-0.1265,0,0,0,-0.1231,-0.1222,-0.124,-0.1237,-0.1249,-0.1265,-0.1268,-0.1274,-0.1282,-0.1272,-0.1283,-0.1296,-0.1296,-0.1265,-0.1265,-0.1325,0,0,0,-0.1229,-0.1218,-0.1239,-0.123,-0.1249,-0.1267,-0.1265,-0.1281,-0.1283,-0.1283,-0.1296,-0.1296,-0.1266,-0.1265,-0.1324,-0.1356,0,0,0,-0.1219,-0.1216,-0.1223,-0.1229,-0.1249,-0.1268,-0.1276,-0.1282,-0.1289,-0.1296,-0.1296,-0.1266,-0.1265,-0.1323,-0.1354,-0.1335,0,0,0,-0.1201,-0.1195,-0.1222,-0.1213,-0.1249,-0.1247,-0.1277,-0.1269,-0.1269,-0.1296,-0.1265,-0.1265,-0.1323,-0.1353,-0.1334,-0.1202,-0.1195,0,0,-0.1181,-0.1192,-0.1185,-0.1211,-0.1216,-0.1241,-0.1258,-0.1271,-0.1255,-0.126,-0.126,-0.1324,-0.1354,-0.1335,-0.1161,-0.1155,0,0,0,-0.117,-0.1171,-0.1171,-0.1187,-0.1195,-0.1251,-0.1256,-0.1268,-0.1285,-0.1254,-0.1293,-0.1309,-0.1295,-0.1213,-0.1208,-0.1261,-0.1261,-0.1262,-0.1262,-0.1133,-0.1151,-0.1156,-0.1189,-0.1202,-0.1247,-0.1284,-0.1304,-0.1278,-0.1289,-0.1334,-0.1331,-0.1242,-0.1237,-0.1303,-0.1303,-0.1303,-0.1304,-0.1304,-0.1116,-0.1123,-0.1172,-0.1182,-0.1249,-0.1275,-0.1345,-0.1355,-0.1377,-0.1359,-0.1343,-0.1251,-0.1235,-0.1308,-0.1307,-0.1306,-0.1306,-0.1306,-0.1305,-0.1086,-0.1099,-0.1117,-0.1173,-0.1247,-0.1314,-0.1374,-0.1422,-0.1419,-0.1432,-0.1282,-0.1279,-0.1373,-0.1397,-0.1397,-0.1398,-0.1398,-0.1398,-0.1398,-0.1049,-0.1077,-0.1093,-0.1166,-0.1206,-0.1287,-0.1384,-0.1388,-0.1352,-0.1327,-0.1325,-0.1361,-0.1358,-0.1376,-0.1399,-0.1398,-0.1398,-0.1398,-0.1398,-0.0993,-0.1017,-0.1037,-0.1067,-0.1162,-0.118,-0.1291,-0.1248,-0.1252,-0.1189,-0.125,-0.1253,-0.1214,-0.1214,-0.1226,-0.1209,-0.121,-0.1209,-0.1209,-0.095,-0.097,-0.098,-0.1011,-0.1068,-0.1126,-0.1045,-0.1015,-0.1032,-0.1026,-0.1034,-0.0988,-0.0999,-0.0945,-0.0953,-0.0958,-0.0872,-0.0872,-0.0871,-0.091,-0.0928,-0.0908,-0.0956,-0.1015,-0.1018,-0.0891,-0.0758,-0.0739,-0.0862,-0.1019,-0.1178,-0.113,-0.114,-0.1072,-0.1078,-0.1094,0,0]},{"header":{"parameterUnit":"m.s-1","parameterCategory":2,"la1":30.2992,"la2":30.254,"lo1":-89.0895,"lo2":-89.0443,"dy":0.0025,"dx":0.0025,"nx":19,"ny":19,"refTime":"2026-04-02T03:00:00:Z","depth":"2","parameterNumber":3,"parameterNumberName":"V-component_of_CURRENTS"},"data":[0,0,0,-0.0286,-0.0285,-0.0214,-0.0214,-0.0088,-0.0087,0,0,0,0,0,0,0,0,0,0,0,-0.0306,-0.0305,-0.0286,-0.0285,-0.0214,-0.0214,-0.0088,-0.0087,0,0,0,0,0,0,0,0,0,0,0,-0.0306,-0.0305,-0.0305,-0.0285,-0.0214,-0.0214,-0.0088,-0.0145,0,0,0,0,0,0,0,0,0,0,-0.0216,-0.0247,-0.0305,-0.0305,-0.0284,-0.0214,-0.0214,-0.0148,-0.0142,-0.0116,0,-0.0116,0,-0.0109,-0.0079,-0.0079,0,0,0,-0.0264,-0.0252,-0.0238,-0.0305,-0.0284,-0.0215,-0.024,-0.0144,-0.0137,-0.0107,-0.0114,-0.011,-0.0107,-0.0079,-0.0078,0.0007,0.0007,0,0,-0.0268,-0.0282,-0.0244,-0.0234,-0.0279,-0.0243,-0.0238,-0.014,-0.0135,-0.0114,-0.0107,-0.0105,-0.0078,-0.0077,0.0007,0.0007,0,0,0,-0.0293,-0.0285,-0.0274,-0.0239,-0.0235,-0.0241,-0.0236,-0.0138,-0.0137,-0.0106,-0.0103,-0.0077,-0.0076,0.0007,0.0007,-0.002,0,0,0,-0.0294,-0.0302,-0.0276,-0.0282,-0.0238,-0.0191,-0.0236,-0.0143,-0.0132,-0.0104,-0.0077,-0.0075,0.0007,0.0007,-0.0019,-0.0037,0,0,0,-0.0306,-0.0302,-0.03,-0.0283,-0.0263,-0.0193,-0.0184,-0.014,-0.0131,-0.0079,-0.0074,0.0007,0.0007,-0.0019,-0.0036,0.0013,0,0,0,-0.0315,-0.0321,-0.03,-0.0296,-0.0265,-0.0224,-0.0185,-0.0143,-0.0102,-0.0077,0.0007,0.0007,-0.0019,-0.0035,0.0013,0.0022,0.0024,0,0,-0.0329,-0.0323,-0.0318,-0.0299,-0.0279,-0.0232,-0.0192,-0.0126,-0.0087,-0.0019,-0.0017,-0.0019,-0.0035,0.0013,0.0037,0.0039,0,0,0,-0.0326,-0.0327,-0.0315,-0.0298,-0.0261,-0.0223,-0.016,-0.0122,-0.0057,-0.0066,-0.0006,-0.0015,0.0016,0.0021,0.0023,0.0008,0.0008,0.0008,0.0008,-0.0369,-0.0344,-0.0342,-0.0309,-0.0279,-0.0208,-0.0161,-0.0097,-0.0062,-0.0039,-0.0027,0.0002,0.0006,0.0007,-0.0012,-0.0012,-0.0013,-0.0013,-0.0013,-0.0403,-0.0404,-0.037,-0.036,-0.0311,-0.0273,-0.0169,-0.0126,-0.0033,-0.0031,0.0002,0.0004,0.0007,-0.0015,-0.0014,-0.0014,-0.0014,-0.0014,-0.0013,-0.0434,-0.0435,-0.0426,-0.042,-0.039,-0.0323,-0.0258,-0.0168,-0.0067,-0.0031,0.0019,0.0019,-0.0002,-0.0002,-0.0002,-0.0002,-0.0002,-0.0002,-0.0002,-0.0478,-0.047,-0.0494,-0.0481,-0.0483,-0.044,-0.0307,-0.0224,-0.0084,-0.0006,-0.0004,0.0006,0.0006,0.0,0.0,0.0,-0.0,-0.0,-0.0,-0.0516,-0.0523,-0.0565,-0.058,-0.0577,-0.0541,-0.041,-0.0211,-0.0098,-0.0021,0.0034,0.0033,0.0053,0.0052,0.0048,0.0061,0.0061,0.0061,0.0061,-0.0554,-0.0557,-0.0629,-0.0667,-0.067,-0.0589,-0.043,-0.0205,-0.0018,0.0068,0.0067,0.0049,0.0047,0.0066,0.0065,0.0061,0.0077,0.0077,0.0077,-0.0589,-0.0611,-0.0669,-0.0705,-0.0717,-0.0623,-0.0446,-0.0143,0.0078,0.0077,0.0063,0.0064,0.0035,0.0032,0.006,0.0058,0.0052,0,0]}],[{"header":{"parameterUnit":"m.s-1","parameterCategory":2,"la1":30.2992,"la2":30.254,"lo1":-89.0895,"lo2":-89.0443,"dy":0.0025,"dx":0.0025,"nx":19,"ny":19,"refTime":"2026-04-02T03:00:00:Z","depth":"4","parameterNumber":2,"parameterNumberName":"U-component_of_CURRENTS"},"data":[0,0,0,-0.0862,-0.0863,-0.0887,-0.0887,-0.0811,-0.081,0,0,0,0,0,0,0,0,0,0,0,-0.085,-0.085,-0.0862,-0.0863,-0.0887,-0.0887,-0.0811,-0.081,0,0,0,0,0,0,0,0,0,0,0,-0.0849,-0.085,-0.0851,-0.0864,-0.0887,-0.0887,-0.0811,-0.0814,0,0,0,0,0,0,0,0,0,0,-0.0801,-0.0813,-0.085,-0.0851,-0.0864,-0.0887,-0.0887,-0.0815,-0.0813,-0.0776,0,-0.0799,0,-0.0813,-0.0805,-0.0804,0,0,0,-0.084,-0.0814,-0.0827,-0.0851,-0.0864,-0.0887,-0.087,-0.0815,-0.0813,-0.0774,-0.0798,-0.0796,-0.0811,-0.0804,-0.0804,-0.0769,-0.0769,0,0,-0.0838,-0.0839,-0.0829,-0.0827,-0.0892,-0.0869,-0.0871,-0.0815,-0.0816,-0.0798,-0.0795,-0.081,-0.0803,-0.0803,-0.0769,-0.0769,0,0,0,-0.085,-0.0839,-0.0855,-0.0829,-0.0848,-0.0871,-0.0872,-0.0818,-0.0826,-0.0794,-0.0809,-0.0803,-0.0802,-0.0769,-0.0769,-0.0803,0,0,0,-0.0848,-0.0848,-0.0854,-0.0853,-0.0851,-0.0849,-0.0876,-0.083,-0.0825,-0.081,-0.0803,-0.0801,-0.0768,-0.0769,-0.0802,-0.0809,0,0,0,-0.0845,-0.0847,-0.0858,-0.0853,-0.0876,-0.085,-0.0855,-0.0829,-0.0834,-0.0804,-0.0801,-0.0768,-0.0769,-0.08,-0.0807,-0.0782,0,0,0,-0.0831,-0.0842,-0.0859,-0.087,-0.0876,-0.0882,-0.0855,-0.0855,-0.0836,-0.0803,-0.0768,-0.0769,-0.08,-0.0806,-0.0781,-0.0696,0,0,0,-0.0831,-0.0842,-0.0847,-0.0862,-0.0872,-0.0876,-0.0875,-0.0847,-0.0827,-0.0774,-0.0774,-0.0802,-0.0807,-0.0782,-0.0729,0,0,0,0,-0.0836,-0.0842,-0.0847,-0.0862,-0.0873,-0.0878,-0.0868,-0.0863,-0.0842,-0.0824,-0.0803,-0.0805,-0.0788,-0.0737,-0.0772,-0.0771,-0.0771,-0.0771,-0.0771,-0.0822,-0.0832,-0.084,-0.0856,-0.0865,-0.0878,-0.0873,-0.0863,-0.085,-0.086,-0.0835,-0.0841,-0.0791,-0.084,-0.084,-0.084,-0.084,-0.084,-0.084,-0.081,-0.0808,-0.0834,-0.0846,-0.0865,-0.0871,-0.0875,-0.088,-0.0864,-0.0869,-0.085,-0.078,-0.0844,-0.0843,-0.0842,-0.0842,-0.0842,-0.0842,-0.0841,-0.0781,-0.0782,-0.0804,-0.0828,-0.085,-0.0873,-0.086,-0.0875,-0.0882,-0.0878,-0.0797,-0.0848,-0.0841,-0.0868,-0.0868,-0.0868,-0.0868,-0.0868,-0.0868,-0.0737,-0.0759,-0.0767,-0.0805,-0.0815,-0.083,-0.0855,-0.0841,-0.0858,-0.0817,-0.0885,-0.0849,-0.0848,-0.0841,-0.0867,-0.0867,-0.0867,-0.0867,-0.0867,-0.0678,-0.0702,-0.0703,-0.0713,-0.0733,-0.0734,-0.0783,-0.0767,-0.0745,-0.0723,-0.0765,-0.077,-0.0738,-0.074,-0.0728,-0.0721,-0.0719,-0.0718,0,-0.0629,-0.0646,-0.063,-0.0621,-0.0608,-0.0658,-0.0623,-0.064,-0.0662,-0.0644,-0.0727,-0.0772,-0.0776,-0.074,-0.074,-0.0725,0,0,0,-0.0581,-0.0588,-0.055,-0.0561,-0.0541,-0.055,-0.0604,-0.0591,-0.0672,-0.0648,-0.0692,-0.0699,-0.0802,-0.0864,-0.0828,-0.0827,-0.0812,0,0]},{"header":{"parameterUnit":"m.s-1","parameterCategory":2,"la1":30.2992,"la2":30.254,"lo1":-89.0895,"lo2":-89.0443,"dy":0.0025,"dx":0.0025,"nx":19,"ny":19,"refTime":"2026-04-02T03:00:00:Z","depth":"4","parameterNumber":3,"parameterNumberName":"V-component_of_CURRENTS"},"data":[0,0,0,-0.0208,-0.0207,-0.0144,-0.0144,-0.0045,-0.0044,0,0,0,0,0,0,0,0,0,0,0,-0.0227,-0.0227,-0.0208,-0.0207,-0.0145,-0.0144,-0.0045,-0.0044,0,0,0,0,0,0,0,0,0,0,0,-0.0227,-0.0227,-0.0227,-0.0207,-0.0145,-0.0144,-0.0045,-0.0092,0,0,0,0,0,0,0,0,0,0,-0.0154,-0.0183,-0.0227,-0.0227,-0.0207,-0.0145,-0.0144,-0.0095,-0.0089,-0.0074,0,-0.0075,0,-0.0066,-0.0039,-0.0038,0,0,0,-0.0188,-0.0187,-0.0173,-0.0227,-0.0207,-0.0145,-0.0167,-0.0092,-0.0086,-0.0067,-0.0073,-0.007,-0.0065,-0.0038,-0.0038,-0.0019,-0.0019,0,0,-0.0192,-0.0209,-0.0177,-0.017,-0.0204,-0.017,-0.0166,-0.0088,-0.0086,-0.0073,-0.0067,-0.0063,-0.0038,-0.0037,-0.0018,-0.0019,0,0,0,-0.0215,-0.0211,-0.0198,-0.0174,-0.0169,-0.0168,-0.0164,-0.0089,-0.0086,-0.0066,-0.0062,-0.0037,-0.0036,-0.0018,-0.0018,-0.0079,0,0,0,-0.0216,-0.0226,-0.02,-0.0208,-0.0171,-0.0132,-0.0167,-0.0091,-0.0082,-0.0062,-0.0037,-0.0035,-0.0017,-0.0018,-0.0076,-0.011,0,0,0,-0.0227,-0.0227,-0.0224,-0.021,-0.0192,-0.0133,-0.0124,-0.0089,-0.008,-0.0038,-0.0035,-0.0017,-0.0018,-0.0074,-0.0106,-0.0098,0,0,0,-0.0239,-0.0241,-0.0225,-0.0222,-0.0193,-0.0166,-0.0125,-0.0092,-0.006,-0.0037,-0.0017,-0.0018,-0.0073,-0.0103,-0.0096,-0.0043,0,0,0,-0.0247,-0.0242,-0.0239,-0.0223,-0.0216,-0.0172,-0.0168,-0.0108,-0.007,-0.0037,-0.0036,-0.0077,-0.0105,-0.0098,-0.0098,0,0,0,0,-0.0245,-0.0249,-0.024,-0.0235,-0.0208,-0.0204,-0.0149,-0.0133,-0.0104,-0.0059,-0.0079,-0.0095,-0.0088,-0.0051,-0.0023,-0.0023,-0.0023,-0.0023,-0.0022,-0.0288,-0.0271,-0.0278,-0.0264,-0.0252,-0.0222,-0.0215,-0.0188,-0.0136,-0.0143,-0.0145,-0.0185,-0.0151,-0.0141,-0.0142,-0.0142,-0.0142,-0.0142,-0.0143,-0.0322,-0.0329,-0.0323,-0.0326,-0.0321,-0.0317,-0.0289,-0.0263,-0.0241,-0.0207,-0.0196,-0.0121,-0.0149,-0.0147,-0.0146,-0.0146,-0.0145,-0.0145,-0.0145,-0.0354,-0.0358,-0.0363,-0.0387,-0.0405,-0.0385,-0.0389,-0.036,-0.0301,-0.0301,-0.0214,-0.0216,-0.0207,-0.0274,-0.0274,-0.0274,-0.0274,-0.0274,-0.0274,-0.0386,-0.0392,-0.0427,-0.0449,-0.047,-0.048,-0.0447,-0.0407,-0.0346,-0.0281,-0.0303,-0.0228,-0.0224,-0.0213,-0.0276,-0.0276,-0.0276,-0.0275,-0.0275,-0.0415,-0.0428,-0.0479,-0.0509,-0.0552,-0.0548,-0.0519,-0.0391,-0.0346,-0.0272,-0.0255,-0.0255,-0.0221,-0.0216,-0.0204,-0.0267,-0.0266,-0.0266,0,-0.0443,-0.0451,-0.0526,-0.0578,-0.0605,-0.0587,-0.0491,-0.0413,-0.0323,-0.0328,-0.0361,-0.0351,-0.0347,-0.0316,-0.0311,-0.0301,0,0,0,-0.0473,-0.0491,-0.0548,-0.0596,-0.0624,-0.0522,-0.0461,-0.0404,-0.035,-0.024,-0.0254,-0.0257,-0.0264,-0.0283,-0.023,-0.0224,-0.0204,0,0]}]]